| time (UTC) | temp F | wind direction | speed MPH | gust MPH | rain 1hr in | rain 24hr in | rain mn in | humidity % | barometer mb |
| 20260502223921 | 49 | 0 | 0.0 | 0.0 | 0.02 | 0.05 | 0.05 | 96 | 1008.6 |
| 20260502222121 | 50 | 0 | 0.0 | 0.0 | 0.02 | 0.05 | 0.05 | 95 | 1008.7 |
| 20260502221221 | 50 | 0 | 0.0 | 0.0 | 0.01 | 0.04 | 0.04 | 95 | 1008.7 |
| 20260502215421 | 51 | 0 | 0.0 | 0.0 | 0.00 | 0.03 | 0.03 | 93 | 1008.9 |
| 20260502214521 | 51 | 314 | 0.0 | 2.0 | 0.00 | 0.03 | 0.03 | 92 | 1008.9 |
| 20260502213621 | 51 | 313 | 0.0 | 2.0 | 0.00 | 0.03 | 0.03 | 90 | 1008.9 |
| 20260502212721 | 52 | 311 | 1.0 | 3.0 | 0.00 | 0.03 | 0.03 | 88 | 1008.9 |
| 20260502210922 | 54 | 336 | 1.0 | 3.0 | 0.00 | 0.03 | 0.03 | 82 | 1008.7 |
| 20260502210021 | 54 | 159 | 1.0 | 4.0 | 0.00 | 0.03 | 0.03 | 82 | 1008.5 |
| 20260502205121 | 54 | 145 | 2.0 | 6.0 | 0.00 | 0.03 | 0.03 | 82 | 1008.4 |
| 20260502203321 | 54 | 153 | 2.0 | 7.0 | 0.00 | 0.03 | 0.03 | 79 | 1008.4 |
| 20260502202421 | 55 | 201 | 0.0 | 5.0 | 0.00 | 0.03 | 0.03 | 78 | 1008.5 |
| 20260502201521 | 55 | 227 | 2.0 | 5.0 | 0.00 | 0.03 | 0.03 | 75 | 1008.5 |
| 20260502200621 | 55 | 252 | 2.0 | 5.0 | 0.00 | 0.03 | 0.03 | 76 | 1008.7 |
| 20260502195721 | 56 | 224 | 2.0 | 5.0 | 0.00 | 0.03 | 0.03 | 74 | 1008.5 |
| 20260502194820 | 56 | 164 | 1.0 | 6.0 | 0.00 | 0.03 | 0.03 | 77 | 1008.7 |
| 20260502193921 | 55 | 230 | 1.0 | 5.0 | 0.00 | 0.03 | 0.03 | 78 | 1008.8 |
| 20260502193021 | 54 | 231 | 1.0 | 4.0 | 0.00 | 0.03 | 0.03 | 79 | 1009.0 |
| 20260502192120 | 54 | 224 | 2.0 | 6.0 | 0.00 | 0.03 | 0.03 | 77 | 1009.2 |
| 20260502191220 | 54 | 192 | 1.0 | 5.0 | 0.00 | 0.03 | 0.03 | 81 | 1009.3 |
| 20260502190320 | 54 | 223 | 2.0 | 7.0 | 0.00 | 0.03 | 0.03 | 78 | 1009.4 |
| 20260502185421 | 54 | 235 | 2.0 | 6.0 | 0.00 | 0.03 | 0.03 | 83 | 1009.3 |
| 20260502184521 | 53 | 166 | 2.0 | 6.0 | 0.00 | 0.03 | 0.03 | 91 | 1009.3 |
| 20260502183620 | 52 | 181 | 1.0 | 4.0 | 0.00 | 0.03 | 0.03 | 94 | 1009.5 |
| 20260502182721 | 51 | 254 | 1.0 | 4.0 | 0.01 | 0.03 | 0.03 | 94 | 1009.3 |
| 20260502181821 | 50 | 236 | 1.0 | 6.0 | 0.02 | 0.03 | 0.03 | 93 | 1009.4 |
| 20260502180920 | 51 | 304 | 0.0 | 2.0 | 0.02 | 0.03 | 0.03 | 95 | 1009.4 |
| 20260502163920 | 53 | 240 | 1.0 | 4.0 | 0.00 | 0.01 | 0.01 | 75 | 1010.0 |
| 20260502163022 | 54 | 219 | 2.0 | 8.0 | 0.00 | 0.01 | 0.01 | 74 | 1010.0 |
| 20260502162120 | 54 | 251 | 1.0 | 3.0 | 0.00 | 0.01 | 0.01 | 77 | 1009.8 |
| 20260502160320 | 54 | 246 | 1.0 | 8.0 | 0.00 | 0.01 | 0.01 | 78 | 1010.0 |
| 20260502151820 | 54 | 120 | 1.0 | 7.0 | 0.00 | 0.01 | 0.01 | 82 | 1010.4 |
| 20260502150920 | 54 | 188 | 0.0 | 3.0 | 0.00 | 0.01 | 0.01 | 85 | 1010.5 |
| 20260502130320 | 49 | 292 | 0.0 | 1.0 | 0.01 | 0.01 | 0.01 | 93 | 1011.2 |
| 20260502123620 | 50 | 292 | 0.0 | 3.0 | 0.00 | 0.00 | 0.00 | 90 | 1011.5 |
| 20260502122720 | 50 | 292 | 1.0 | 3.0 | 0.00 | 0.00 | 0.00 | 90 | 1011.5 |
| 20260502121820 | 50 | 299 | 1.0 | 4.0 | 0.00 | 0.00 | 0.00 | 90 | 1011.3 |
| 20260502120920 | 49 | 310 | 1.0 | 3.0 | 0.00 | 0.00 | 0.00 | 89 | 1011.0 |
| 20260502115120 | 49 | 351 | 0.0 | 1.0 | 0.00 | 0.00 | 0.00 | 91 | 1010.6 |
| 20260502114220 | 49 | 351 | 0.0 | 1.0 | 0.00 | 0.00 | 0.00 | 91 | 1010.6 |
| 20260502113320 | 48 | 0 | 0.0 | 0.0 | 0.00 | 0.00 | 0.00 | 91 | 1010.4 |
| 20260502112420 | 48 | 0 | 0.0 | 0.0 | 0.00 | 0.00 | 0.00 | 91 | 1010.4 |
| 20260502111520 | 48 | 0 | 0.0 | 0.0 | 0.00 | 0.00 | 0.00 | 90 | 1010.5 |
| 20260502110620 | 48 | 351 | 0.0 | 1.0 | 0.00 | 0.00 | 0.00 | 91 | 1010.5 |
| 20260502105720 | 48 | 0 | 0.0 | 0.0 | 0.00 | 0.00 | 0.00 | 91 | 1010.5 |
| 20260502104820 | 48 | 351 | 0.0 | 1.0 | 0.00 | 0.00 | 0.00 | 91 | 1010.4 |
| 20260502103920 | 48 | 0 | 0.0 | 0.0 | 0.00 | 0.00 | 0.00 | 93 | 1010.3 |
| 20260502103020 | 48 | 267 | 0.0 | 2.0 | 0.00 | 0.00 | 0.00 | 92 | 1010.3 |
| 20260502102120 | 48 | 266 | 0.0 | 2.0 | 0.00 | 0.00 | 0.00 | 91 | 1010.2 |
| 20260502101220 | 48 | 0 | 0.0 | 0.0 | 0.00 | 0.00 | 0.00 | 92 | 1010.0 |
| 20260502100320 | 47 | 269 | 0.0 | 2.0 | 0.00 | 0.00 | 0.00 | 93 | 1010.0 |
| 20260502071220 | 49 | 0 | 0.0 | 0.0 | 0.00 | 0.00 | 0.00 | 82 | 1010.0 |
| 20260502070320 | 49 | 309 | 0.0 | 2.0 | 0.00 | 0.00 | 0.00 | 82 | 1009.9 |
| 20260502065420 | 49 | 310 | 0.0 | 1.0 | 0.00 | 0.00 | 0.00 | 80 | 1010.1 |
| 20260502064520 | 49 | 310 | 0.0 | 2.0 | 0.00 | 0.00 | 0.00 | 81 | 1010.2 |
| 20260502063620 | 49 | 0 | 0.0 | 0.0 | 0.00 | 0.00 | 0.00 | 81 | 1010.3 |
| 20260502062720 | 49 | 310 | 0.0 | 2.0 | 0.00 | 0.00 | 0.00 | 81 | 1010.2 |
| 20260502061820 | 49 | 0 | 0.0 | 0.0 | 0.00 | 0.00 | 0.00 | 81 | 1010.1 |
| 20260502060920 | 49 | 0 | 0.0 | 0.0 | 0.00 | 0.00 | 0.00 | 80 | 1010.0 |
| 20260502060020 | 49 | 0 | 0.0 | 0.0 | 0.00 | 0.00 | 0.00 | 80 | 1010.1 |
| 20260502054220 | 49 | 0 | 0.0 | 0.0 | 0.00 | 0.00 | 0.00 | 78 | 1010.2 |
| 20260502053320 | 49 | 0 | 0.0 | 0.0 | 0.00 | 0.00 | 0.00 | 77 | 1010.3 |
| 20260502050620 | 49 | 0 | 0.0 | 0.0 | 0.00 | 0.00 | 0.00 | 77 | 1010.2 |
| 20260502045720 | 49 | 0 | 0.0 | 0.0 | 0.00 | 0.00 | 0.00 | 77 | 1010.1 |
| 20260502044820 | 49 | 0 | 0.0 | 0.0 | 0.00 | 0.00 | 0.00 | 75 | 1010.2 |
| 20260502042120 | 49 | 0 | 0.0 | 0.0 | 0.00 | 0.00 | 0.00 | 75 | 1010.3 |
| 20260502040320 | 49 | 0 | 0.0 | 0.0 | 0.00 | 0.00 | 0.00 | 74 | 1010.3 |
| 20260502035420 | 48 | 0 | 0.0 | 0.0 | 0.00 | 0.00 | 0.00 | 74 | 1010.3 |
| 20260502034520 | 48 | 0 | 0.0 | 0.0 | 0.00 | 0.00 | 0.00 | 74 | 1010.3 |
| 20260502033620 | 48 | 0 | 0.0 | 0.0 | 0.00 | 0.00 | 0.00 | 74 | 1010.3 |
| 20260502032720 | 48 | 0 | 0.0 | 0.0 | 0.00 | 0.00 | 0.00 | 75 | 1010.4 |
| 20260502031820 | 48 | 0 | 0.0 | 0.0 | 0.00 | 0.00 | 0.00 | 75 | 1010.3 |
| 20260502030920 | 48 | 0 | 0.0 | 0.0 | 0.00 | 0.00 | 0.00 | 75 | 1010.3 |
| 20260502025120 | 47 | 0 | 0.0 | 0.0 | 0.00 | 0.00 | 0.00 | 75 | 1010.2 |
| 20260502024220 | 46 | 0 | 0.0 | 0.0 | 0.00 | 0.00 | 0.00 | 78 | 1010.2 |
| 20260502023320 | 46 | 310 | 0.0 | 2.0 | 0.00 | 0.00 | 0.00 | 78 | 1010.2 |
| 20260502022420 | 46 | 310 | 0.0 | 2.0 | 0.00 | 0.00 | 0.00 | 78 | 1010.2 |
| 20260502021520 | 47 | 0 | 0.0 | 0.0 | 0.00 | 0.00 | 0.00 | 76 | 1010.0 |
| 20260502020620 | 47 | 0 | 0.0 | 0.0 | 0.00 | 0.00 | 0.00 | 74 | 1009.9 |
| 20260502015720 | 48 | 0 | 0.0 | 0.0 | 0.00 | 0.00 | 0.00 | 74 | 1009.9 |
| 20260502014820 | 48 | 0 | 0.0 | 0.0 | 0.00 | 0.00 | 0.00 | 72 | 1009.8 |
| 20260502013020 | 49 | 0 | 0.0 | 0.0 | 0.00 | 0.00 | 0.00 | 69 | 1009.8 |
| 20260502012119 | 50 | 0 | 0.0 | 0.0 | 0.00 | 0.00 | 0.00 | 67 | 1009.7 |
| 20260502010320 | 51 | 0 | 0.0 | 0.0 | 0.00 | 0.00 | 0.00 | 65 | 1009.6 |
| 20260502005420 | 52 | 0 | 0.0 | 0.0 | 0.00 | 0.00 | 0.00 | 62 | 1009.5 |
| 20260502004520 | 53 | 0 | 0.0 | 0.0 | 0.00 | 0.00 | 0.00 | 61 | 1009.5 |
| 20260502003619 | 54 | 0 | 0.0 | 0.0 | 0.00 | 0.00 | 0.00 | 58 | 1009.3 |
| 20260502002720 | 55 | 0 | 0.0 | 0.0 | 0.00 | 0.00 | 0.00 | 58 | 1009.2 |
| 20260502001820 | 56 | 0 | 0.0 | 0.0 | 0.00 | 0.00 | 0.00 | 53 | 1009.0 |
| 20260502000920 | 57 | 0 | 0.0 | 0.0 | 0.00 | 0.00 | 0.00 | 51 | 1008.9 |
| 20260502000019 | 57 | 0 | 0.0 | 0.0 | 0.00 | 0.00 | 0.00 | 50 | 1008.8 |
| 20260501235119 | 58 | 0 | 0.0 | 0.0 | 0.00 | 0.00 | 0.00 | 50 | 1008.6 |
| 20260501234219 | 59 | 0 | 0.0 | 0.0 | 0.00 | 0.00 | 0.00 | 48 | 1008.4 |
| 20260501233319 | 59 | 0 | 0.0 | 0.0 | 0.00 | 0.00 | 0.00 | 48 | 1008.3 |
| 20260501232420 | 60 | 310 | 0.0 | 1.0 | 0.00 | 0.00 | 0.00 | 48 | 1008.1 |
| 20260501231520 | 60 | 310 | 0.0 | 1.0 | 0.00 | 0.00 | 0.00 | 45 | 1008.0 |
| 20260501230620 | 60 | 310 | 0.0 | 2.0 | 0.00 | 0.00 | 0.00 | 45 | 1007.9 |
| 20260501225719 | 61 | 310 | 0.0 | 1.0 | 0.00 | 0.00 | 0.00 | 43 | 1007.8 |
| 20260501224819 | 61 | 311 | 1.0 | 4.0 | 0.00 | 0.00 | 0.00 | 43 | 1007.8 |